Location: Holbach
(51.5399°N, 10.6036°E)
Time: 07:12:55
(UTC+00:00)

Cosmos 2263 Rocket - Pass Details

Date: 18 September 2020
Orbit: 822 x 849 km, 71.0° (Epoch: 19 October)

Event Time Altitude Azimuth Distance (km) Brightness Sun altitude
Rises 17:49:06 0° 189° (S) 3,345 5.3 -4.7°
Reaches altitude 10° 17:51:35 10° 184° (S) 2,419 4.6 -5.0°
Maximum altitude 17:56:52 48° 111° (ESE) 1,070 2.4 -5.9°
Drops below altitude 10° 18:02:14 10° 39° (NE) 2,447 4.3 -6.7°
Sets 18:04:45 0° 34° (NNE) 3,389 5.1 -7.1°
